[[{"header":{"parameterUnit":"m.s-1","parameterCategory":1,"la1":30.2991,"la2":30.254,"lo1":-89.0895,"lo2":-89.0444,"dy":0.0017,"dx":0.0017,"nx":28,"ny":28,"refTime":"2025-04-23T21:00:00:Z","depth":0,"parameterNumber":2,"parameterNumberName":"U-component_of_WINDS"},"data":[0,0,0,0,0,0,0,0,0,0,0,0,0,0,0,0,0,0,0,0,0,0,0,0,0,0,0,0,0,0,0,0,0,0,0,0,0,0,0,0,0,0,0,0,0,0,0,0,0,0,0,0,0,0,0,0,0,0,-3.4219,-3.4219,0,-3.4269,-3.4269,-3.427,-3.4228,-3.4226,-3.4224,-3.4222,-3.4276,-3.4279,-3.4282,0,0,0,0,0,0,0,0,0,0,0,0,0,-3.409,-3.4093,-3.4219,-3.4219,-3.422,-3.4268,-3.4269,-3.427,-3.4228,-3.4226,-3.4224,-3.4222,-3.4275,-3.4278,-3.4282,0,0,0,0,0,0,0,0,0,0,0,0,0,-3.4144,-3.4094,-3.4219,-3.4205,-3.4204,-3.4268,-3.4269,-3.427,-3.4228,-3.4226,-3.4223,-3.4221,-3.4274,-3.4278,-3.4283,-3.4364,0,0,-3.4297,-3.4299,0,0,0,0,0,0,0,0,-3.4141,-3.4148,-3.4206,-3.4206,-3.4205,-3.4239,-3.4243,-3.4302,-3.4229,-3.4219,-3.4222,-3.4219,-3.4266,-3.4271,-3.4286,-3.4366,-3.4369,-3.4297,-3.43,-3.4302,-3.4303,0,0,0,0,0,0,0,-3.4137,-3.4146,-3.4239,-3.4207,-3.4207,-3.4197,-3.4202,-3.4254,-3.4257,-3.422,-3.4217,-3.4223,-3.4265,-3.4282,-3.4287,-3.4369,-3.4297,-3.4301,-3.4304,-3.4306,-3.4519,-3.4521,0,0,0,0,0,0,-3.4134,-3.4143,-3.4237,-3.424,-3.4166,-3.4202,-3.4207,-3.4231,-3.4256,-3.4257,-3.4225,-3.4221,-3.4275,-3.4282,-3.4289,-3.4385,-3.4302,-3.4306,-3.4309,-3.4516,-3.4519,-3.4522,0,0,0,0,0,0,-3.4132,-3.4143,-3.4235,-3.4191,-3.4202,-3.4207,-3.4234,-3.4233,-3.425,-3.426,-3.4261,-3.4242,-3.4273,-3.4282,-3.4345,-3.4386,-3.4308,-3.4312,-3.4512,-3.4517,-3.4521,-3.4578,0,0,0,0,0,0,-3.4128,-3.4142,-3.4173,-3.4192,-3.4204,-3.429,-3.4237,-3.4236,-3.4258,-3.4252,-3.4276,-3.4277,-3.4272,-3.4339,-3.435,-3.4391,-3.4316,-3.4509,-3.4514,-3.4519,-3.4572,-3.4584,-3.4593,0,0,0,0,0,-3.4124,-3.4187,-3.4174,-3.4186,-3.4242,-3.4292,-3.4299,-3.4291,-3.4261,-3.4292,-3.4299,-3.4276,-3.438,-3.4345,-3.4358,-3.4401,-3.4506,-3.4513,-3.4519,-3.4568,-3.4581,-3.4593,0,0,0,0,0,0,-3.4174,-3.419,-3.4175,-3.4247,-3.4268,-3.4285,-3.4323,-3.4307,-3.4338,-3.4332,-3.4321,-3.4327,-3.4393,-3.4404,-3.4365,-3.4481,-3.4438,-3.4448,-3.4471,-3.4484,-3.4495,-3.449,-3.432,0,0,0,0,0,-3.4193,-3.4232,-3.4244,-3.4306,-3.4317,-3.4319,-3.434,-3.4332,-3.4355,-3.4364,-3.4375,-3.4398,-3.4436,-3.4461,-3.4496,-3.4574,-3.4579,-3.461,-3.4621,-3.4629,-3.4637,-3.4679,-3.4693,-3.4544,-3.4544,-3.4544,0,0,-3.4233,-3.4247,-3.4272,-3.4316,-3.4332,-3.4373,-3.4327,-3.4372,-3.4402,-3.4371,-3.443,-3.444,-3.4465,-3.4536,-3.4567,-3.4546,-3.4679,-3.4638,-3.4644,-3.4647,-3.4687,-3.4701,-3.4713,-3.4548,-3.4547,-3.4547,0,0,-3.4327,-3.4342,-3.4394,-3.4411,-3.4435,-3.4435,-3.4448,-3.4468,-3.4472,-3.4532,-3.4509,-3.4546,-3.4611,-3.463,-3.4648,-3.475,-3.473,-3.4762,-3.4816,-3.4857,-3.4868,-3.4879,-3.4914,-3.4927,-3.477,-3.477,-3.477,0,-3.4374,-3.4434,-3.4424,-3.447,-3.449,-3.4464,-3.4517,-3.4534,-3.4569,-3.4584,-3.456,-3.4641,-3.4657,-3.4731,-3.4756,-3.4772,-3.4786,-3.4758,-3.4867,-3.4878,-3.4887,-3.4921,-3.4934,-3.4773,-3.4773,-3.4773,-3.4772,0,-3.449,-3.4532,-3.4572,-3.4605,-3.463,-3.468,-3.4678,-3.4705,-3.4695,-3.4699,-3.476,-3.4777,-3.4815,-3.4833,-3.4825,-3.4906,-3.4892,-3.4868,-3.4825,-3.4905,-3.4936,-3.4949,-3.4779,-3.4777,-3.4776,-3.4775,0,0,-3.4616,-3.4642,-3.4657,-3.4672,-3.4697,-3.4729,-3.4779,-3.4815,-3.4838,-3.4863,-3.4904,-3.4961,-3.4938,-3.4959,-3.4952,-3.4988,-3.5067,-3.496,-3.496,-3.4978,-3.5157,-3.5174,-3.5189,-3.5055,-3.5057,-3.5059,-3.5155,0,-3.4709,-3.4793,-3.4786,-3.4866,-3.4904,-3.488,-3.4923,-3.4943,-3.4948,-3.4982,-3.4988,-3.5027,-3.4995,-3.5008,-3.5042,-3.505,-3.5102,-3.5043,-3.5093,-3.5095,-3.5085,-3.5206,-3.5224,-3.5313,-3.5167,-3.5169,-3.5171,0,-3.483,-3.4858,-3.4941,-3.496,-3.4976,-3.5014,-3.5047,-3.508,-3.5103,-3.5104,-3.5127,-3.5115,-3.5165,-3.5122,-3.5192,-3.5151,-3.5172,-3.5179,-3.5182,-3.5185,-3.5136,-3.5211,-3.5342,-3.5355,-3.519,-3.5189,-3.5187,0,-3.4911,-3.4971,-3.5028,-3.5041,-3.5065,-3.5092,-3.5104,-3.5124,-3.5146,-3.5176,-3.519,-3.5226,-3.5245,-3.5273,-3.5271,-3.524,-3.5341,-3.5298,-3.5343,-3.5344,-3.5365,-3.5363,-3.5499,-3.538,-3.538,-3.538,-3.538,0,-3.5016,-3.5068,-3.5065,-3.51,-3.5157,-3.5149,-3.5206,-3.5215,-3.5233,-3.527,-3.5252,-3.5288,-3.5283,-3.5319,-3.5318,-3.5375,-3.5385,-3.5387,-3.5386,-3.5388,-3.5387,-3.54,-3.5393,-3.5383,-3.5383,-3.5382,-3.5381,0,-3.5116,-3.5117,-3.5177,-3.5194,-3.52,-3.5241,-3.5256,-3.529,-3.5294,-3.5341,-3.5351,-3.5357,-3.5399,-3.5399,-3.5447,-3.5447,-3.5516,-3.5509,-3.5508,-3.5506,-3.5551,-3.5546,-3.5698,-3.5718,-3.5588,-3.5589,-3.559,0,-3.5183,-3.5221,-3.5243,-3.5265,-3.5278,-3.5315,-3.5337,-3.5332,-3.5356,-3.5385,-3.5416,-3.5455,-3.5486,-3.5553,-3.5562,-3.5599,-3.5591,-3.5642,-3.5597,-3.5597,-3.5591,-3.5588,-3.5591,-3.5651,-3.5652,-3.5653,-3.5654,0,-3.53,-3.5298,-3.533,-3.5362,-3.5389,-3.5415,-3.5439,-3.5459,-3.5456,-3.5484,-3.5525,-3.5549,-3.5597,-3.5637,-3.5672,-3.5685,-3.5669,-3.5669,-3.5681,-3.5683,-3.568,-3.5681,-3.5531,-3.5665,-3.5664,-3.5663,-3.5662,-3.5662,-3.5384,-3.5417,-3.5437,-3.5473,-3.549,-3.5513,-3.5545,-3.5552,-3.5586,-3.5624,-3.5619,-3.5665,-3.5688,-3.5733,-3.5749,-3.5786,-3.5768,-3.5786,-3.579,-3.5795,-3.5799,-3.5675,-3.5792,-3.5792,-3.5792,-3.5791,-3.5791,0,-3.5499,-3.5511,-3.5544,-3.5577,-3.5606,-3.5588,-3.5614,-3.5639,-3.5679,-3.5701,-3.5732,-3.5779,-3.5818,-3.583,-3.5867,-3.5894,-3.5888,-3.5904,-3.5901,-3.5904,-3.5813,-3.5798,-3.5908,-3.5908,-3.5908,-3.5908,-3.5908,-3.5908,-3.5562,-3.5617,-3.5618,-3.5681,-3.5692,-3.5736,-3.5752,-3.5773,-3.579,-3.5843,-3.5874,-3.5882,-3.59,-3.5938,-3.5973,-3.5976,-3.599,-3.6009,-3.6008,-3.5923,-3.5911,-3.5899,-3.5885,-3.6012,-3.6012,-3.6096,-3.6097,-3.6098]},{"header":{"parameterUnit":"m.s-1","parameterCategory":1,"la1":30.2991,"la2":30.254,"lo1":-89.0895,"lo2":-89.0444,"dy":0.0017,"dx":0.0017,"nx":28,"ny":28,"refTime":"2025-04-23T21:00:00:Z","depth":0,"parameterNumber":3,"parameterNumberName":"V-component_of_WINDS"},"data":[0,0,0,0,0,0,0,0,0,0,0,0,0,0,0,0,0,0,0,0,0,0,0,0,0,0,0,0,0,0,0,0,0,0,0,0,0,0,0,0,0,0,0,0,0,0,0,0,0,0,0,0,0,0,0,0,0,0,3.0113,3.0113,0,3.0132,3.0132,3.0133,3.0094,3.0093,3.0092,3.009,3.0108,3.0109,3.0111,0,0,0,0,0,0,0,0,0,0,0,0,0,3.004,3.0042,3.0113,3.0113,3.0113,3.0132,3.0132,3.0133,3.0094,3.0093,3.0091,3.009,3.0107,3.0109,3.0111,0,0,0,0,0,0,0,0,0,0,0,0,0,3.0067,3.0042,3.0113,3.0096,3.0095,3.0132,3.0132,3.0133,3.0095,3.0093,3.0091,3.0089,3.0107,3.0109,3.0111,3.0164,0,0,3.0119,3.012,0,0,0,0,0,0,0,0,3.0065,3.0069,3.0099,3.0098,3.0096,3.0109,3.0113,3.0143,3.0095,3.0095,3.009,3.0088,3.0109,3.0112,3.0119,3.0165,3.0166,3.0119,3.012,3.0122,3.0122,0,0,0,0,0,0,0,3.0063,3.0068,3.012,3.0099,3.0098,3.0087,3.0089,3.0119,3.0112,3.0095,3.0092,3.0095,3.0108,3.0117,3.0119,3.0166,3.0119,3.0121,3.0123,3.0124,3.0256,3.0258,0,0,0,0,0,0,3.0064,3.0067,3.012,3.0121,3.0076,3.009,3.0092,3.0107,3.0112,3.0111,3.0096,3.0093,3.0114,3.0116,3.012,3.0182,3.0121,3.0124,3.0125,3.0254,3.0256,3.0258,0,0,0,0,0,0,3.0063,3.0069,3.0119,3.0093,3.0099,3.0094,3.011,3.0108,3.0117,3.0113,3.0112,3.0107,3.0112,3.0116,3.0153,3.0182,3.0125,3.0127,3.0251,3.0254,3.0257,3.0306,0,0,0,0,0,0,3.0061,3.0069,3.0089,3.0094,3.01,3.0153,3.0112,3.011,3.0121,3.0117,3.0122,3.0121,3.0111,3.015,3.0156,3.0184,3.0129,3.0249,3.0253,3.0256,3.0302,3.0311,3.0318,0,0,0,0,0,3.0058,3.0102,3.0091,3.0097,3.0126,3.0155,3.0158,3.0146,3.0124,3.0144,3.0142,3.0121,3.0178,3.0154,3.016,3.019,3.0247,3.0252,3.0256,3.0299,3.0309,3.0318,0,0,0,0,0,0,3.0099,3.0102,3.009,3.0136,3.0146,3.0148,3.0173,3.0158,3.0173,3.0168,3.0152,3.0154,3.0194,3.0196,3.0169,3.0241,3.0208,3.0214,3.0239,3.0248,3.0256,3.0255,3.0131,0,0,0,0,0,3.0114,3.0138,3.0139,3.018,3.0185,3.0179,3.0191,3.0181,3.019,3.0193,3.0194,3.0203,3.0222,3.0235,3.0253,3.0302,3.0303,3.0326,3.0334,3.034,3.0345,3.0371,3.0381,3.0273,3.0273,3.0273,0,0,3.0144,3.0149,3.0165,3.0188,3.0194,3.0219,3.0182,3.021,3.0227,3.0197,3.0232,3.0233,3.0242,3.0285,3.0304,3.0288,3.0375,3.0346,3.0351,3.0353,3.0377,3.0387,3.0396,3.0277,3.0276,3.0276,0,0,3.0211,3.0218,3.0252,3.026,3.027,3.0266,3.0274,3.0279,3.0279,3.0314,3.0292,3.0313,3.0347,3.0354,3.0362,3.0433,3.0415,3.044,3.0481,3.0506,3.0515,3.0522,3.0547,3.0556,3.0445,3.0445,3.0445,0,3.0247,3.0284,3.0272,3.0301,3.0312,3.0287,3.0322,3.0329,3.0344,3.0352,3.0334,3.0377,3.0381,3.0425,3.0443,3.045,3.0459,3.0439,3.0515,3.0522,3.0529,3.0552,3.0562,3.0448,3.0448,3.0447,3.0447,0,3.0328,3.0354,3.038,3.0397,3.0411,3.0443,3.0435,3.045,3.0439,3.0436,3.0473,3.0477,3.0495,3.0505,3.0494,3.0548,3.0538,3.0517,3.0484,3.0542,3.0564,3.0573,3.0452,3.0451,3.045,3.045,0,0,3.042,3.0431,3.0441,3.0448,3.0458,3.0477,3.0508,3.0527,3.054,3.0552,3.0577,3.0607,3.0588,3.0597,3.0587,3.061,3.0665,3.0586,3.0586,3.06,3.0725,3.074,3.075,3.0653,3.0655,3.0656,3.0724,0,3.0487,3.0541,3.0531,3.0583,3.0607,3.0583,3.061,3.0619,3.0617,3.0636,3.0634,3.0655,3.0629,3.0635,3.0656,3.0654,3.069,3.0649,3.0676,3.0677,3.0674,3.0762,3.0778,3.0841,3.0732,3.0734,3.0735,0,3.0572,3.0588,3.0643,3.0649,3.0659,3.0683,3.0699,3.0718,3.0727,3.0725,3.0736,3.0721,3.0751,3.0718,3.0758,3.0731,3.0741,3.0742,3.0744,3.0746,3.0709,3.0765,3.0861,3.087,3.0748,3.0747,3.0746,0,3.0634,3.0669,3.0706,3.0713,3.0722,3.0739,3.0743,3.0751,3.0763,3.0777,3.0785,3.0802,3.0812,3.0825,3.0816,3.0793,3.0858,3.0824,3.0856,3.0856,3.087,3.0869,3.0968,3.0878,3.0878,3.0877,3.0877,0,3.0709,3.0743,3.0734,3.0757,3.0795,3.0783,3.082,3.0821,3.0828,3.085,3.0831,3.0852,3.0839,3.0859,3.0851,3.0886,3.089,3.0888,3.0886,3.089,3.089,3.0896,3.0891,3.088,3.0879,3.0879,3.0878,0,3.0784,3.078,3.0819,3.0824,3.0826,3.0854,3.0858,3.0879,3.0876,3.0904,3.091,3.0906,3.0928,3.092,3.0944,3.0939,3.0983,3.0975,3.098,3.0978,3.101,3.1007,3.1115,3.1129,3.103,3.1031,3.1032,0,3.0832,3.0858,3.0867,3.0881,3.0887,3.091,3.0922,3.0912,3.0925,3.0938,3.0957,3.0978,3.0994,3.1031,3.1029,3.1047,3.1039,3.1076,3.1042,3.1045,3.1039,3.1038,3.104,3.1083,3.1084,3.1085,3.1085,0,3.0918,3.0915,3.0934,3.0953,3.0969,3.0983,3.0995,3.1008,3.0998,3.1014,3.1037,3.105,3.1075,3.1095,3.1112,3.1115,3.1098,3.1097,3.1105,3.1109,3.111,3.1109,3.0998,3.1094,3.1093,3.1092,3.1092,3.1092,3.0981,3.1003,3.1013,3.1035,3.1043,3.1055,3.1076,3.1076,3.1095,3.1115,3.1107,3.1134,3.1142,3.1163,3.1168,3.1188,3.1174,3.1186,3.1189,3.1192,3.1196,3.1108,3.1191,3.1191,3.1191,3.1191,3.119,0,3.1065,3.1071,3.1092,3.111,3.1127,3.1112,3.1124,3.114,3.1164,3.1173,3.119,3.1216,3.1236,3.1237,3.1255,3.1271,3.1264,3.1277,3.1275,3.1276,3.1208,3.1199,3.1282,3.1282,3.1282,3.1282,3.1282,3.1282,3.1111,3.1148,3.1146,3.1186,3.1191,3.1217,3.1226,3.1237,3.1244,3.1275,3.1292,3.1293,3.1298,3.1317,3.1335,3.1334,3.1342,3.1357,3.1354,3.129,3.1281,3.1272,3.1263,3.1359,3.1359,3.142,3.142,3.1421]}]]